Weather in Lansing

United States     42°46′59″N   84°31′55″W
temp.,
°C
wind,
m/s
gust,
m/s
humid.,
%
clouds,
%
prec.,
mm/h
press.,
hPa
HPBL,
m
23 may, mon
mon2323:00+8nw3774100 0.0 1027167
02:00+6nnw2285100 0.0 102821
05:00+5n3492100 0.0 102980
08:00+7nne358197 0.0 1030223
11:00+12ne336311 0.0 10281274
14:00+13ene435898 0.1 10271328
17:00+13ene446148 0.0 10261092
20:00+12ene35745 0.0 1026203
24 may, tue
tue2423:00+8e358045 0.0 102696
02:00+6e337573 0.0 102644
05:00+5ene3461100 0.0 102672
08:00+7ne356298 0.0 1027165
11:00+13ene455135 0.0 1025728
14:00+16ne4445100 0.0 10241210
17:00+17ene454899 0.0 10231285
20:00+14ne487084 0.0 1023249
25 may, wed
wed2523:00+9ene387378 0.0 1025152
02:00+7ene41080100 0.0 1024183
05:00+7ene3979100 0.0 1023182
08:00+10e41277100 0.0 1023334
11:00+16ese71074100 0.0 1020665
14:00+16ese61288100 0.5 1019686
17:00+18se81483100 3.1 1016736
20:00+18sse81788100 3.6 1013614
26 may, thu
thu2623:00+16sse61796100 1.6 1013415
02:00+19ssw61693100 2.5 1012703
05:00+18ssw61595100 0.0 1012540
08:00+19sw51295100 0.0 1013622
11:00+21sw6987100 0.6 1012864
14:00+21wsw4783100 2.0 1012839
17:00+21wsw4885100 2.1 1011689
20:00+19nw2395100 3.6 1011180
27 may, fri
fri2723:00+16n2397100 0.1 101169
02:00+16ne2497100 0.1 101097
05:00+16ne3599100 1.4 1009220
08:00+13ne5898100 2.8 1009259
11:00+12ne5797100 0.4 1010278
14:00+12ne5996100 0.7 1010363
17:00+13ne61094100 0.0 1010466
20:00+11ne5119496 0.1 1010442